Weather History for Rhinelander, WI

Change the Weather History Date:

Monday, April 8, 2013

  Actual Average Record
Temperature  
Mean Temperature 36 °F 38 °F  
Max Temperature 39 °F 49 °F 83 °F (1931)
Min Temperature 33 °F 27 °F 2 °F (1972)
Degree Days  
Heating Degree Days 29 27  
Month to date heating degree days 269 228  
Since 1 July heating degree days 7998 8023  
Cooling Degree Days 0 0  
Month to date cooling degree days 0 0  
Year to date cooling degree days 0 0  
Moisture  
Dew Point 33 °F    
Average Humidity 86    
Maximum Humidity 96    
Minimum Humidity 75    
Precipitation  
Precipitation 0.27 in 0.08 in 1.40 in (1991)
Month to date precipitation 0.72 0.60  
Year to date precipitation 5.53 4.21  
Snow  
Snow 0.00 in - 2.00 in (1923)
Month to date snowfall 1.4  
Since 1 July snowfall 70.2  
Snow Depth 13.00 in    
Sea Level Pressure  
Sea Level Pressure 29.90 in    
Wind  
Wind Speed 4 mph (East)    
Max Wind Speed 15 mph    
Max Gust Speed 18 mph    
Visibility 5 miles    
Events Fog , Rain    
T = Trace of Precipitation, MM = Missing Value Source: NWS Daily Summary

Daily Weather History Graph

Daily Weather History Graph

Search for Another Location

Airport:

Trip Planner

Search our weather history database for the weather conditions in past years. The results will help you decide how hot, cold, wet, or windy it might be!

Date:

Astronomy

Apr. 08, 2013 Rise Set
Actual Time 6:24 AM CDT 7:35 PM CDT
Civil Twilight 5:54 AM CDT 8:06 PM CDT
Nautical Twilight 5:17 AM CDT 8:42 PM CDT
Astronomical Twilight 4:38 AM CDT 9:21 PM CDT
Moon 5:19 AM CDT (4/8) 6:07 PM CDT (4/8)
Length of Visible Light 14h 12m
Length of Day
13h 11m
Waning Crescent, 3% of the Moon is Illuminated
Apr 8
Waning Crescent
Apr 10
New
Apr 18
First Quarter
Apr 25
Full
May 2
Last Quarter

Hourly Weather History & Observations

Time (CDT) Temp. Windchill Dew Point Humidity Pressure Visibility Wind Dir Wind Speed Gust Speed Precip Events Conditions
12:53 AM 35.1 °F 31.0 °F 28.0 °F 76% 29.90 in 10.0 mi ESE 4.6 mph - N/A   Clear
1:53 AM 35.1 °F 32.2 °F 28.9 °F 78% 29.89 in 10.0 mi East 3.5 mph - N/A   Mostly Cloudy
2:53 AM 34.0 °F 28.8 °F 28.9 °F 82% 29.88 in 10.0 mi East 5.8 mph - N/A   Overcast
3:53 AM 35.1 °F 27.9 °F 30.0 °F 82% 29.87 in 7.0 mi ESE 9.2 mph - 0.01 in Rain Light Rain
4:53 AM 34.0 °F 28.0 °F 30.9 °F 89% 29.86 in 6.0 mi ENE 6.9 mph - 0.02 in Rain Light Rain
5:53 AM 34.0 °F 31.0 °F 30.9 °F 89% 29.87 in 4.0 mi ESE 3.5 mph - 0.02 in Rain Light Rain
6:12 AM 33.8 °F - 30.2 °F 87% 29.83 in 2.5 mi Calm Calm - 0.04 in Rain Rain
6:27 AM 33.8 °F - 30.2 °F 87% 29.84 in 3.0 mi Calm Calm - 0.07 in Rain Rain
6:53 AM 33.1 °F 27.7 °F 30.9 °F 92% 29.88 in 4.0 mi ENE 5.8 mph - 0.09 in Rain Light Rain
7:53 AM 34.0 °F 28.0 °F 30.9 °F 89% 29.86 in 4.0 mi East 6.9 mph - 0.01 in Rain Light Rain
8:48 AM 33.8 °F 29.6 °F 30.2 °F 87% 29.79 in 2.5 mi ENE 4.6 mph - 0.02 in Rain Light Rain
8:53 AM 34.0 °F 31.0 °F 30.9 °F 89% 29.84 in 3.0 mi ENE 3.5 mph - 0.03 in Rain Light Rain
9:49 AM 33.8 °F 27.0 °F 32.0 °F 93% 29.77 in 2.0 mi East 8.1 mph - 0.04 in Rain Light Rain
9:53 AM 34.0 °F 26.6 °F 32.0 °F 92% 29.82 in 3.0 mi East 9.2 mph - 0.04 in Rain Light Rain
10:39 AM 35.6 °F 28.6 °F 32.0 °F 87% 29.78 in 6.0 mi East 9.2 mph - 0.00 in   Overcast
10:53 AM 35.1 °F 28.6 °F 32.0 °F 89% 29.83 in 6.0 mi East 8.1 mph - 0.00 in   Overcast
11:44 AM 35.6 °F 27.1 °F 32.0 °F 87% 29.76 in 7.0 mi East 12.7 mph - 0.00 in Rain Light Rain
11:53 AM 36.0 °F 28.5 °F 32.0 °F 86% 29.81 in 6.0 mi East 10.4 mph - 0.00 in Rain Light Rain
12:29 PM 35.6 °F 30.7 °F 33.8 °F 93% 29.77 in 5.0 mi East 5.8 mph - 0.02 in Rain Light Rain
12:37 PM 35.6 °F 31.7 °F 33.8 °F 93% 29.78 in 5.0 mi East 4.6 mph - 0.02 in Rain Light Rain
12:53 PM 36.0 °F 30.3 °F 33.1 °F 89% 29.82 in 4.0 mi East 6.9 mph - 0.04 in Rain Light Rain
1:53 PM 37.0 °F - 34.0 °F 89% 29.85 in 4.0 mi Calm Calm - 0.00 in   Overcast
2:53 PM 37.0 °F - 34.0 °F 89% 29.87 in 4.0 mi Calm Calm - 0.01 in   Overcast
3:53 PM 37.9 °F 35.5 °F 35.1 °F 89% 29.86 in 7.0 mi NE 3.5 mph - N/A   Overcast
4:53 PM 37.9 °F 35.5 °F 35.1 °F 89% 29.89 in 10.0 mi Variable 3.5 mph - N/A   Overcast
5:53 PM 37.9 °F 34.4 °F 35.1 °F 89% 29.90 in 10.0 mi NE 4.6 mph - N/A   Overcast
6:53 PM 37.9 °F - 35.1 °F 89% 29.94 in 8.0 mi Calm Calm - N/A   Overcast
7:53 PM 37.0 °F - 35.1 °F 93% 29.98 in 8.0 mi Calm Calm - N/A   Overcast
8:39 PM 37.4 °F - 35.6 °F 93% 29.97 in 6.0 mi Calm Calm - N/A   Overcast
8:53 PM 37.0 °F - 34.0 °F 89% 30.02 in 4.0 mi Calm Calm - N/A   Overcast
9:04 PM 37.4 °F - 35.6 °F 93% 29.97 in 1.8 mi Calm Calm - N/A   Overcast
9:22 PM 35.6 °F - 35.6 °F 100% 29.98 in 0.5 mi Calm Calm - N/A Fog Fog
9:53 PM 36.0 °F - 34.0 °F 93% 30.04 in 0.8 mi Calm Calm - N/A   Overcast
10:03 PM 35.6 °F - 33.8 °F 93% 29.99 in 1.0 mi Calm Calm - N/A   Overcast
10:12 PM 35.6 °F - 35.6 °F 100% 29.99 in 3.0 mi Calm Calm - N/A   Overcast
10:37 PM 35.6 °F - 33.8 °F 93% 30.00 in 1.8 mi Calm Calm - N/A   Overcast
10:44 PM 35.6 °F - 33.8 °F 93% 30.01 in 1.0 mi Calm Calm - N/A   Overcast
10:53 PM 36.0 °F - 34.0 °F 93% 30.06 in 1.5 mi Calm Calm - N/A   Overcast
11:18 PM 35.6 °F - 33.8 °F 93% 30.00 in 3.0 mi Calm Calm - N/A   Overcast
11:31 PM 35.6 °F - 33.8 °F 93% 30.00 in 1.8 mi Calm Calm - N/A   Overcast
11:53 PM 35.1 °F - 33.1 °F 92% 30.05 in 2.0 mi Calm Calm - N/A   Overcast